sat.trackr.live / text

‹ back to catalog

KINEIS-4D

NORAD 63302 · 2025-056C

PAYLOAD ACTIVE UNKNOWN

§ Identity

Operator
Country
FR
Launch date
2025-03-18
Launch site
RLLB
Launch vehicle
Mass (kg)
RCS (m²)

External: N2YO · Heavens-Above · Gunter

§ Orbital elements

Epoch: 2026-09-22T22:14:03.251328Z

Period
97.80 min
Inclination
97.9122°
Eccentricity
0.0003140
Mean motion
14.72369406 rev/d
Perigee alt
651.3 km
Apogee alt
655.7 km
Semi-major
7,031.7 km
B*
1.6187e-4
RAAN
27.3686°
Arg perigee
48.9390°
Mean anomaly
311.2089°
Rev number
8,151

§ Raw data

KINEIS-4D1 63302U 25056C   26265.92642652  .00000976  00000+0  16187-3 0  99962 63302  97.9122  27.3686 0003140  48.9390 311.2089 14.72369406 81510

JSON: /api/v1/satellites/63302 · /tle

For live sub-satellite position, see the globe view (requires WebGL).

§ Visibility from observer

Set your observer location to see the next 7 days of passes ≥ 10°. The values pass through the URL so the page stays shareable.

No JS? Fill the form by hand. The geolocation button needs JavaScript.

§ Radio — SatNOGS DB

ModeDescriptionDownlinkUplink
BPSK PMT-A3 Mode U 400.651 MHz
UNKNOWN S-band telemetry 2.266 GHz

2 transmitters · refreshed weekly from db.satnogs.org